Location: Im Fang
(46.6019°N, 7.2397°E)
Time: 05:22:50
(UTC+00:00)

Cosmos 1241 Rocket - Pass Details

Date: 08 December 2019
Orbit: 943 x 1005 km, 65.8° (Epoch: 23 January)

Event Time Altitude Azimuth Distance (km) Brightness Sun altitude
Exits shadow 04:20:01 60° 223° (SW) 1,074 4.4 -26.8°
Drops below altitude 10° 04:25:43 10° 163° (SSE) 2,658 7.0 -25.9°
Sets 04:28:16 0° 159° (SSE) 3,604 7.8 -25.4°
